Time,TemperatureF,DewpointF,PressureIn,WindDirection,WindDirectionDegrees,WindSpeedMPH,WindSpeedGustMPH,Humidity,HourlyPrecipIn,Conditions,Clouds,dailyrainin,SoftwareType,DateUTC
2013-04-20 00:00:00,72.1,69.0,29.90,SW,235,0.0,3.0,90,0.00,FEW,,0.00,WeatherDisplay:10.37,2013-04-19 14:00:00,
2013-04-20 00:10:00,72.0,68.9,29.90,SW,235,0.0,1.0,90,0.00,FEW,,0.00,WeatherDisplay:10.37,2013-04-19 14:10:00,
2013-04-20 00:15:00,71.9,68.8,29.89,SW,235,0.0,2.0,90,0.00,FEW,,0.00,WeatherDisplay:10.37,2013-04-19 14:15:00,
2013-04-20 00:20:00,71.8,68.7,29.89,SW,235,0.0,1.0,90,0.00,FEW,,0.00,WeatherDisplay:10.37,2013-04-19 14:20:00,
2013-04-20 00:25:00,71.7,68.6,29.89,SW,235,0.0,1.0,90,0.00,FEW,,0.00,WeatherDisplay:10.37,2013-04-19 14:25:00,
2013-04-20 00:30:00,71.7,68.6,29.89,SW,235,0.0,1.0,90,0.00,CLR,,0.00,WeatherDisplay:10.37,2013-04-19 14:30:00,
2013-04-20 00:35:00,71.5,68.5,29.89,SW,235,0.0,1.0,90,0.00,CLR,,0.00,WeatherDisplay:10.37,2013-04-19 14:35:00,
2013-04-20 00:40:00,71.4,68.4,29.88,SW,235,0.0,1.0,90,0.00,CLR,,0.00,WeatherDisplay:10.37,2013-04-19 14:40:00,
2013-04-20 00:45:00,71.4,68.3,29.88,SW,235,0.0,0.0,90,0.00,CLR,,0.00,WeatherDisplay:10.37,2013-04-19 14:45:00,
2013-04-20 00:50:00,71.3,68.5,29.88,SW,235,0.0,0.0,91,0.00,CLR,,0.00,WeatherDisplay:10.37,2013-04-19 14:50:00,
2013-04-20 01:00:00,71.2,68.4,29.88,SW,235,0.0,0.0,91,0.00,CLR,,0.00,WeatherDisplay:10.37,2013-04-19 15:00:00,
2013-04-20 01:05:00,71.1,68.3,29.88,SW,235,0.0,0.0,91,0.00,FEW,,0.00,WeatherDisplay:10.37,2013-04-19 15:05:00,
2013-04-20 01:10:00,71.0,68.2,29.88,SW,235,0.0,0.0,91,0.00,FEW,,0.00,WeatherDisplay:10.37,2013-04-19 15:10:00,
2013-04-20 01:15:00,70.8,68.0,29.88,SW,235,0.0,0.0,91,0.00,FEW,,0.00,WeatherDisplay:10.37,2013-04-19 15:15:00,
2013-04-20 01:20:00,70.7,68.0,29.87,SW,235,0.0,2.0,91,0.00,FEW,,0.00,WeatherDisplay:10.37,2013-04-19 15:20:00,
2013-04-20 01:25:00,70.7,67.9,29.87,SW,235,0.0,0.0,91,0.00,FEW,,0.00,WeatherDisplay:10.37,2013-04-19 15:25:00,
2013-04-20 01:30:00,70.6,67.8,29.87,SW,235,0.0,1.0,91,0.00,CLR,,0.00,WeatherDisplay:10.37,2013-04-19 15:30:00,
2013-04-20 01:35:00,70.5,67.7,29.87,SW,235,0.0,2.0,91,0.00,CLR,,0.00,WeatherDisplay:10.37,2013-04-19 15:35:00,
2013-04-20 01:40:00,70.4,67.6,29.87,SW,235,0.0,0.0,91,0.00,CLR,,0.00,WeatherDisplay:10.37,2013-04-19 15:40:00,
2013-04-20 01:45:00,70.2,67.5,29.86,SW,235,0.0,0.0,91,0.00,CLR,,0.00,WeatherDisplay:10.37,2013-04-19 15:45:00,
2013-04-20 01:50:00,70.2,67.4,29.86,SW,235,0.0,0.0,91,0.00,CLR,,0.00,WeatherDisplay:10.37,2013-04-19 15:50:00,
2013-04-20 01:55:00,70.1,67.3,29.86,SW,235,0.0,0.0,91,0.00,CLR,,0.00,WeatherDisplay:10.37,2013-04-19 15:55:00,
2013-04-20 02:00:00,70.0,67.3,29.86,SW,235,0.0,0.0,91,0.00,CLR,,0.00,WeatherDisplay:10.37,2013-04-19 16:00:00,
2013-04-20 02:10:00,70.0,67.3,29.85,SW,235,0.0,0.0,91,0.00,CLR,,0.00,WeatherDisplay:10.37,2013-04-19 16:10:00,
2013-04-20 02:15:00,69.9,67.2,29.85,SW,235,0.0,0.0,91,0.00,CLR,,0.00,WeatherDisplay:10.37,2013-04-19 16:15:00,
2013-04-20 02:20:00,70.0,67.6,29.85,SW,235,0.0,0.0,92,0.00,CLR,,0.00,WeatherDisplay:10.37,2013-04-19 16:20:00,
2013-04-20 02:25:00,70.2,67.8,29.85,SW,235,0.0,3.0,92,0.00,CLR,,0.00,WeatherDisplay:10.37,2013-04-19 16:25:00,
2013-04-20 02:30:00,70.3,67.9,29.85,SW,235,0.0,3.0,92,0.00,CLR,,0.00,WeatherDisplay:10.37,2013-04-19 16:30:00,
2013-04-20 02:35:00,70.2,67.4,29.84,SW,235,0.0,2.0,91,0.00,CLR,,0.00,WeatherDisplay:10.37,2013-04-19 16:35:00,
2013-04-20 02:40:00,70.2,67.4,29.84,SW,235,1.0,3.0,91,0.00,CLR,,0.00,WeatherDisplay:10.37,2013-04-19 16:40:00,
2013-04-20 02:45:00,70.2,67.7,29.84,SW,235,0.0,4.0,92,0.00,CLR,,0.00,WeatherDisplay:10.37,2013-04-19 16:45:00,
2013-04-20 02:50:00,70.0,67.3,29.84,SW,235,1.0,3.0,91,0.00,CLR,,0.00,WeatherDisplay:10.37,2013-04-19 16:50:00,
2013-04-20 02:55:00,69.8,67.1,29.84,SW,235,0.0,3.0,91,0.00,CLR,,0.00,WeatherDisplay:10.37,2013-04-19 16:55:00,
2013-04-20 03:05:00,69.6,66.9,29.84,SW,235,0.0,0.0,91,0.00,CLR,,0.00,WeatherDisplay:10.37,2013-04-19 17:05:00,
2013-04-20 03:10:00,69.5,66.8,29.84,SW,235,0.0,0.0,91,0.00,CLR,,0.00,WeatherDisplay:10.37,2013-04-19 17:10:00,
2013-04-20 03:15:00,69.5,66.8,29.84,SW,235,0.0,0.0,91,0.00,CLR,,0.00,WeatherDisplay:10.37,2013-04-19 17:15:00,
2013-04-20 03:20:00,69.4,66.7,29.84,SW,235,0.0,0.0,91,0.00,CLR,,0.00,WeatherDisplay:10.37,2013-04-19 17:20:00,
2013-04-20 03:25:00,69.4,66.7,29.84,SW,235,0.0,0.0,91,0.00,CLR,,0.00,WeatherDisplay:10.37,2013-04-19 17:25:00,
2013-04-20 03:35:00,69.2,66.5,29.84,SW,235,0.0,0.0,91,0.00,CLR,,0.00,WeatherDisplay:10.37,2013-04-19 17:35:00,
2013-04-20 03:40:00,69.2,66.5,29.83,SW,235,0.0,0.0,91,0.00,CLR,,0.00,WeatherDisplay:10.37,2013-04-19 17:40:00,
2013-04-20 03:45:00,69.2,66.8,29.83,SW,235,0.0,0.0,92,0.00,CLR,,0.00,WeatherDisplay:10.37,2013-04-19 17:45:00,
2013-04-20 03:50:00,69.1,66.4,29.83,SW,235,0.0,0.0,91,0.00,CLR,,0.00,WeatherDisplay:10.37,2013-04-19 17:50:00,
2013-04-20 03:55:00,69.0,66.3,29.83,SW,235,0.0,0.0,91,0.00,CLR,,0.00,WeatherDisplay:10.37,2013-04-19 17:55:00,
2013-04-20 04:00:00,68.9,66.2,29.83,SW,235,0.0,0.0,91,0.00,CLR,,0.00,WeatherDisplay:10.37,2013-04-19 18:00:00,
2013-04-20 04:10:00,68.8,66.1,29.83,SW,235,0.0,0.0,91,0.00,CLR,,0.00,WeatherDisplay:10.37,2013-04-19 18:10:00,
2013-04-20 04:15:00,68.8,66.4,29.83,SW,235,0.0,0.0,92,0.00,CLR,,0.00,WeatherDisplay:10.37,2013-04-19 18:15:00,
2013-04-20 04:20:00,68.8,66.4,29.83,SW,235,0.0,0.0,92,0.00,CLR,,0.00,WeatherDisplay:10.37,2013-04-19 18:20:00,
2013-04-20 04:25:00,68.8,66.4,29.83,SW,235,0.0,0.0,92,0.00,CLR,,0.00,WeatherDisplay:10.37,2013-04-19 18:25:00,
2013-04-20 04:30:00,68.8,66.4,29.83,SW,235,0.0,0.0,92,0.00,CLR,,0.00,WeatherDisplay:10.37,2013-04-19 18:30:00,
2013-04-20 04:35:00,68.8,66.4,29.83,SW,235,0.0,0.0,92,0.00,CLR,,0.00,WeatherDisplay:10.37,2013-04-19 18:35:00,
2013-04-20 04:40:00,68.8,66.4,29.83,SW,235,0.0,0.0,92,0.00,CLR,,0.00,WeatherDisplay:10.37,2013-04-19 18:40:00,
2013-04-20 04:45:00,68.7,66.3,29.83,SW,235,0.0,0.0,92,0.00,CLR,,0.00,WeatherDisplay:10.37,2013-04-19 18:45:00,
2013-04-20 04:50:00,68.6,66.2,29.83,SW,235,0.0,0.0,92,0.00,CLR,,0.00,WeatherDisplay:10.37,2013-04-19 18:50:00,
2013-04-20 04:55:00,68.8,66.4,29.83,SW,235,0.0,0.0,92,0.00,CLR,,0.00,WeatherDisplay:10.37,2013-04-19 18:55:00,
2013-04-20 05:00:00,68.9,66.5,29.83,SW,235,0.0,0.0,92,0.00,CLR,,0.00,WeatherDisplay:10.37,2013-04-19 19:00:00,
2013-04-20 05:05:00,68.8,66.4,29.83,SW,235,0.0,0.0,92,0.00,CLR,,0.00,WeatherDisplay:10.37,2013-04-19 19:05:00,
2013-04-20 05:10:00,68.6,66.2,29.83,SW,235,0.0,0.0,92,0.00,CLR,,0.00,WeatherDisplay:10.37,2013-04-19 19:10:00,
2013-04-20 05:15:00,68.7,66.2,29.83,SW,235,0.0,0.0,92,0.00,CLR,,0.00,WeatherDisplay:10.37,2013-04-19 19:15:00,
2013-04-20 05:20:00,68.6,66.2,29.83,SW,235,0.0,1.0,92,0.00,CLR,,0.00,WeatherDisplay:10.37,2013-04-19 19:20:00,
2013-04-20 05:25:00,68.7,66.3,29.83,SW,235,0.0,0.0,92,0.00,CLR,,0.00,WeatherDisplay:10.37,2013-04-19 19:25:00,
2013-04-20 05:30:00,69.0,66.6,29.83,SW,235,0.0,1.0,92,0.00,CLR,,0.00,WeatherDisplay:10.37,2013-04-19 19:30:00,
2013-04-20 05:35:00,69.0,66.6,29.83,SW,235,0.0,0.0,92,0.00,CLR,,0.00,WeatherDisplay:10.37,2013-04-19 19:35:00,
2013-04-20 05:40:00,69.0,66.6,29.83,SW,235,0.0,0.0,92,0.00,SKC,,0.00,WeatherDisplay:10.37,2013-04-19 19:40:00,
2013-04-20 05:45:00,68.9,66.5,29.83,SW,235,0.0,0.0,92,0.00,SKC,,0.00,WeatherDisplay:10.37,2013-04-19 19:45:00,
2013-04-20 05:55:00,68.7,66.3,29.84,SW,235,0.0,0.0,92,0.00,SKC,,0.00,WeatherDisplay:10.37,2013-04-19 19:55:00,
2013-04-20 06:00:00,68.6,66.2,29.84,SW,235,0.0,0.0,92,0.00,SKC,,0.00,WeatherDisplay:10.37,2013-04-19 20:00:00,
2013-04-20 06:10:00,68.5,66.1,29.84,SW,235,0.0,0.0,92,0.00,CLR,,0.00,WeatherDisplay:10.37,2013-04-19 20:10:00,
2013-04-20 06:15:00,68.4,66.0,29.84,SW,235,0.0,0.0,92,0.00,CLR,,0.00,WeatherDisplay:10.37,2013-04-19 20:15:00,
2013-04-20 06:20:00,68.2,65.8,29.85,SW,235,0.0,0.0,92,0.00,CLR,,0.00,WeatherDisplay:10.37,2013-04-19 20:20:00,
2013-04-20 06:25:00,68.1,65.7,29.85,SW,235,0.0,0.0,92,0.00,CLR,,0.00,WeatherDisplay:10.37,2013-04-19 20:25:00,
2013-04-20 06:30:00,68.0,65.6,29.85,SW,235,0.0,1.0,92,0.00,CLR,,0.00,WeatherDisplay:10.37,2013-04-19 20:30:00,
2013-04-20 06:35:00,67.9,65.5,29.86,SW,235,0.0,0.0,92,0.00,CLR,,0.00,WeatherDisplay:10.37,2013-04-19 20:35:00,
2013-04-20 06:45:00,68.3,65.9,29.86,SW,235,0.0,2.0,92,0.00,CLR,,0.00,WeatherDisplay:10.37,2013-04-19 20:45:00,
2013-04-20 06:50:00,68.5,66.1,29.86,SW,235,0.0,1.0,92,0.00,CLR,,0.00,WeatherDisplay:10.37,2013-04-19 20:50:00,
2013-04-20 06:55:00,68.7,66.6,29.87,SW,235,0.0,2.0,93,0.00,CLR,,0.00,WeatherDisplay:10.37,2013-04-19 20:55:00,
2013-04-20 07:00:00,69.0,66.5,29.87,SW,235,0.0,2.0,92,0.00,CLR,,0.00,WeatherDisplay:10.37,2013-04-19 21:00:00,
2013-04-20 07:10:00,69.3,66.9,29.87,SW,233,0.0,2.0,92,0.00,CLR,,0.00,WeatherDisplay:10.37,2013-04-19 21:10:00,
2013-04-20 07:15:00,69.5,67.0,29.87,SW,233,1.0,2.0,92,0.00,CLR,,0.00,WeatherDisplay:10.37,2013-04-19 21:15:00,
2013-04-20 07:20:00,69.7,67.3,29.87,SW,233,0.0,3.0,92,0.00,CLR,,0.00,WeatherDisplay:10.37,2013-04-19 21:20:00,
2013-04-20 07:25:00,69.9,67.5,29.87,SW,233,0.0,2.0,92,0.00,CLR,,0.00,WeatherDisplay:10.37,2013-04-19 21:25:00,
2013-04-20 07:30:00,70.1,67.7,29.87,SW,233,0.0,2.0,92,0.00,FEW,,0.00,WeatherDisplay:10.37,2013-04-19 21:30:00,
2013-04-20 07:35:00,70.5,67.7,29.87,SW,233,0.0,2.0,91,0.00,FEW,,0.00,WeatherDisplay:10.37,2013-04-19 21:35:00,
2013-04-20 07:40:00,70.8,68.0,29.87,SW,233,0.0,2.0,91,0.00,FEW,,0.00,WeatherDisplay:10.37,2013-04-19 21:40:00,
2013-04-20 07:45:00,71.2,68.5,29.87,SW,233,0.0,2.0,91,0.00,FEW,,0.00,WeatherDisplay:10.37,2013-04-19 21:45:00,
2013-04-20 07:50:00,71.6,68.5,29.87,SW,233,0.0,1.0,90,0.00,FEW,,0.00,WeatherDisplay:10.37,2013-04-19 21:50:00,
2013-04-20 07:55:00,72.1,69.0,29.87,SW,233,0.0,3.0,90,0.00,FEW,,0.00,WeatherDisplay:10.37,2013-04-19 21:55:00,
2013-04-20 08:00:00,72.5,69.1,29.87,SW,232,1.0,3.0,89,0.00,FEW,,0.00,WeatherDisplay:10.37,2013-04-19 22:00:00,
2013-04-20 08:10:00,73.2,69.1,29.87,SW,233,2.0,3.0,87,0.00,FEW,,0.00,WeatherDisplay:10.37,2013-04-19 22:10:00,
2013-04-20 08:15:00,73.5,69.1,29.88,SW,233,0.0,4.0,86,0.00,FEW,,0.00,WeatherDisplay:10.37,2013-04-19 22:15:00,
2013-04-20 08:25:00,74.5,69.4,29.87,SW,234,0.0,3.0,84,0.00,FEW,,0.00,WeatherDisplay:10.37,2013-04-19 22:25:00,
2013-04-20 08:30:00,75.2,69.7,29.87,SW,234,0.0,2.0,83,0.00,FEW,,0.00,WeatherDisplay:10.37,2013-04-19 22:30:00,
2013-04-20 08:35:00,75.8,69.6,29.87,SW,234,2.0,3.0,81,0.00,FEW,,0.00,WeatherDisplay:10.37,2013-04-19 22:35:00,
2013-04-20 08:40:00,76.1,69.5,29.87,SW,234,0.0,3.0,80,0.00,FEW,,0.00,WeatherDisplay:10.37,2013-04-19 22:40:00,
2013-04-20 08:45:00,76.6,69.6,29.87,SW,234,0.0,2.0,79,0.00,FEW,,0.00,WeatherDisplay:10.37,2013-04-19 22:45:00,
2013-04-20 08:50:00,77.2,70.2,29.87,SW,234,0.0,2.0,79,0.00,FEW,,0.00,WeatherDisplay:10.37,2013-04-19 22:50:00,
2013-04-20 08:55:00,78.0,71.0,29.88,SW,234,0.0,1.0,79,0.00,FEW,,0.00,WeatherDisplay:10.37,2013-04-19 22:55:00,
2013-04-20 09:00:00,78.9,71.1,29.88,SW,234,0.0,1.0,77,0.00,FEW,,0.00,WeatherDisplay:10.37,2013-04-19 23:00:00,
2013-04-20 09:10:00,81.1,72.4,29.88,SW,234,1.0,3.0,75,0.00,FEW,,0.00,WeatherDisplay:10.37,2013-04-19 23:10:00,
2013-04-20 09:15:00,81.4,71.9,29.88,SW,234,1.0,3.0,73,0.00,FEW,,0.00,WeatherDisplay:10.37,2013-04-19 23:15:00,
2013-04-20 09:20:00,81.5,71.6,29.88,SW,234,1.0,3.0,72,0.00,FEW,,0.00,WeatherDisplay:10.37,2013-04-19 23:20:00,
2013-04-20 09:25:00,81.4,71.9,29.88,SE,138,3.0,4.0,73,0.00,FEW,,0.00,WeatherDisplay:10.37,2013-04-19 23:25:00,
2013-04-20 09:30:00,81.2,72.5,29.88,East,83,2.0,4.0,75,0.00,CLR,,0.00,WeatherDisplay:10.37,2013-04-19 23:30:00,
2013-04-20 09:40:00,80.9,72.6,29.88,ENE,77,1.0,4.0,76,0.00,CLR,,0.00,WeatherDisplay:10.37,2013-04-19 23:40:00,
2013-04-20 09:45:00,80.9,71.8,29.88,ENE,77,2.0,4.0,74,0.00,CLR,,0.00,WeatherDisplay:10.37,2013-04-19 23:45:00,
2013-04-20 09:50:00,81.0,71.9,29.88,ENE,77,2.0,4.0,74,0.00,CLR,,0.00,WeatherDisplay:10.37,2013-04-19 23:50:00,
2013-04-20 09:55:00,80.9,71.4,29.88,ENE,77,2.0,4.0,73,0.00,CLR,,0.00,WeatherDisplay:10.37,2013-04-19 23:55:00,
2013-04-20 10:00:00,81.4,71.9,29.89,ENE,77,0.0,3.0,73,0.00,CLR,,0.00,WeatherDisplay:10.37,2013-04-20 00:00:00,
2013-04-20 10:10:00,83.2,73.7,29.88,ENE,77,0.0,3.0,73,0.00,CLR,,0.00,WeatherDisplay:10.37,2013-04-20 00:10:00,
2013-04-20 10:15:00,83.9,73.5,29.88,ENE,77,0.0,2.0,71,0.00,CLR,,0.00,WeatherDisplay:10.37,2013-04-20 00:15:00,
2013-04-20 10:20:00,84.5,74.5,29.87,ENE,77,1.0,3.0,72,0.00,CLR,,0.00,WeatherDisplay:10.37,2013-04-20 00:20:00,
2013-04-20 10:25:00,84.5,73.6,29.88,ENE,77,1.0,2.0,70,0.00,CLR,,0.00,WeatherDisplay:10.37,2013-04-20 00:25:00,
2013-04-20 10:30:00,84.6,74.1,29.87,ENE,77,1.0,3.0,71,0.00,CLR,,0.00,WeatherDisplay:10.37,2013-04-20 00:30:00,
2013-04-20 10:35:00,84.8,74.0,29.87,ENE,77,1.0,3.0,70,0.00,CLR,,0.00,WeatherDisplay:10.37,2013-04-20 00:35:00,
2013-04-20 10:40:00,85.1,74.2,29.87,ENE,77,0.0,3.0,70,0.00,CLR,,0.00,WeatherDisplay:10.37,2013-04-20 00:40:00,
2013-04-20 10:45:00,84.9,73.6,29.87,ENE,76,1.0,3.0,69,0.00,CLR,,0.00,WeatherDisplay:10.37,2013-04-20 00:45:00,
2013-04-20 10:50:00,84.6,73.8,29.87,ENE,75,0.0,2.0,70,0.00,CLR,,0.00,WeatherDisplay:10.37,2013-04-20 00:50:00,
2013-04-20 10:55:00,84.4,73.5,29.86,ENE,74,1.0,3.0,70,0.00,CLR,,0.00,WeatherDisplay:10.37,2013-04-20 00:55:00,
2013-04-20 11:00:00,84.1,73.7,29.86,ENE,66,0.0,4.0,71,0.00,CLR,,0.00,WeatherDisplay:10.37,2013-04-20 01:00:00,
2013-04-20 11:05:00,84.1,74.1,29.86,ENE,58,0.0,2.0,72,0.00,FEW,,0.00,WeatherDisplay:10.37,2013-04-20 01:05:00,
2013-04-20 11:10:00,84.1,73.7,29.86,NE,55,1.0,3.0,71,0.00,FEW,,0.00,WeatherDisplay:10.37,2013-04-20 01:10:00,
2013-04-20 11:15:00,83.8,73.8,29.85,NE,40,2.0,5.0,72,0.00,FEW,,0.00,WeatherDisplay:10.37,2013-04-20 01:15:00,
2013-04-20 11:20:00,83.3,74.1,29.85,NNE,28,1.0,3.0,74,0.00,FEW,,0.00,WeatherDisplay:10.37,2013-04-20 01:20:00,
2013-04-20 11:25:00,83.2,73.2,29.85,NNE,25,1.0,3.0,72,0.00,FEW,,0.00,WeatherDisplay:10.37,2013-04-20 01:25:00,
2013-04-20 11:30:00,83.1,74.0,29.85,NNE,25,1.0,4.0,74,0.00,FEW,,0.00,WeatherDisplay:10.37,2013-04-20 01:30:00,
2013-04-20 11:35:00,82.8,74.1,29.85,NNE,24,1.0,3.0,75,0.00,FEW,,0.00,WeatherDisplay:10.37,2013-04-20 01:35:00,
2013-04-20 11:40:00,82.9,73.8,29.84,NNE,24,0.0,4.0,74,0.00,FEW,,0.00,WeatherDisplay:10.37,2013-04-20 01:40:00,
2013-04-20 11:45:00,83.4,74.2,29.84,NNE,23,0.0,3.0,74,0.00,FEW,,0.00,WeatherDisplay:10.37,2013-04-20 01:45:00,
2013-04-20 11:55:00,84.2,75.0,29.83,NNE,23,1.0,3.0,74,0.00,FEW,,0.00,WeatherDisplay:10.37,2013-04-20 01:55:00,
2013-04-20 12:00:00,84.2,74.6,29.84,NNE,22,1.0,4.0,73,0.00,FEW,,0.00,WeatherDisplay:10.37,2013-04-20 02:00:00,
2013-04-20 12:10:00,84.5,74.9,29.83,NNE,22,0.0,3.0,73,0.00,FEW,,0.00,WeatherDisplay:10.37,2013-04-20 02:10:00,
2013-04-20 12:15:00,84.4,74.8,29.82,NNE,22,0.0,3.0,73,0.00,FEW,,0.00,WeatherDisplay:10.37,2013-04-20 02:15:00,
2013-04-20 12:20:00,84.6,75.4,29.82,NNE,24,0.0,4.0,74,0.00,FEW,,0.00,WeatherDisplay:10.37,2013-04-20 02:20:00,
2013-04-20 12:25:00,84.7,75.5,29.82,NNE,27,1.0,3.0,74,0.00,FEW,,0.00,WeatherDisplay:10.37,2013-04-20 02:25:00,
2013-04-20 12:30:00,84.6,75.0,29.82,NNE,27,1.0,2.0,73,0.00,FEW,,0.00,WeatherDisplay:10.37,2013-04-20 02:30:00,
2013-04-20 12:35:00,84.7,75.5,29.82,NNE,27,1.0,2.0,74,0.00,FEW,,0.00,WeatherDisplay:10.37,2013-04-20 02:35:00,
2013-04-20 12:40:00,84.6,75.4,29.82,NNE,27,0.0,2.0,74,0.00,FEW,,0.00,WeatherDisplay:10.37,2013-04-20 02:40:00,
2013-04-20 12:45:00,84.8,75.9,29.81,NE,36,0.0,2.0,75,0.00,FEW,,0.00,WeatherDisplay:10.37,2013-04-20 02:45:00,
2013-04-20 12:50:00,85.1,75.9,29.81,NE,50,0.0,3.0,74,0.00,FEW,,0.00,WeatherDisplay:10.37,2013-04-20 02:50:00,
2013-04-20 12:55:00,85.1,75.9,29.81,NE,51,1.0,3.0,74,0.00,FEW,,0.00,WeatherDisplay:10.37,2013-04-20 02:55:00,
2013-04-20 13:00:00,84.9,75.7,29.81,NE,49,0.0,2.0,74,0.00,FEW,,0.00,WeatherDisplay:10.37,2013-04-20 03:00:00,
2013-04-20 13:10:00,84.9,76.5,29.80,NE,52,0.0,2.0,76,0.00,FEW,,0.00,WeatherDisplay:10.37,2013-04-20 03:10:00,
2013-04-20 13:15:00,85.2,76.4,29.80,NE,54,0.0,3.0,75,0.00,FEW,,0.00,WeatherDisplay:10.37,2013-04-20 03:15:00,
2013-04-20 13:20:00,85.1,75.5,29.80,NE,54,0.0,3.0,73,0.00,FEW,,0.00,WeatherDisplay:10.37,2013-04-20 03:20:00,
2013-04-20 13:25:00,84.7,75.5,29.79,NE,54,0.0,3.0,74,0.00,FEW,,0.00,WeatherDisplay:10.37,2013-04-20 03:25:00,
2013-04-20 13:30:00,84.5,75.7,29.80,NE,53,1.0,2.0,75,0.00,FEW,,0.00,WeatherDisplay:10.37,2013-04-20 03:30:00,
2013-04-20 13:35:00,84.2,75.0,29.79,NE,37,2.0,5.0,74,0.00,FEW,,0.00,WeatherDisplay:10.37,2013-04-20 03:35:00,
2013-04-20 13:40:00,83.6,74.8,29.79,NNE,18,2.0,5.0,75,0.00,FEW,,0.00,WeatherDisplay:10.37,2013-04-20 03:40:00,
2013-04-20 13:45:00,83.2,75.2,29.79,NNE,12,1.0,3.0,77,0.00,FEW,,0.00,WeatherDisplay:10.37,2013-04-20 03:45:00,
2013-04-20 13:50:00,83.1,75.1,29.78,NNE,14,2.0,4.0,77,0.00,FEW,,0.00,WeatherDisplay:10.37,2013-04-20 03:50:00,
2013-04-20 13:55:00,83.0,75.4,29.78,NNE,18,1.0,3.0,78,0.00,FEW,,0.00,WeatherDisplay:10.37,2013-04-20 03:55:00,
2013-04-20 14:00:00,82.9,75.3,29.78,NNE,19,0.0,4.0,78,0.00,FEW,,0.00,WeatherDisplay:10.37,2013-04-20 04:00:00,
2013-04-20 14:05:00,83.0,75.8,29.78,NNE,18,0.0,4.0,79,0.00,FEW,,0.00,WeatherDisplay:10.37,2013-04-20 04:05:00,
2013-04-20 14:10:00,83.2,75.6,29.79,NNE,20,1.0,3.0,78,0.00,FEW,,0.00,WeatherDisplay:10.37,2013-04-20 04:10:00,
2013-04-20 14:15:00,83.4,75.8,29.79,NNE,23,1.0,4.0,78,0.00,FEW,,0.00,WeatherDisplay:10.37,2013-04-20 04:15:00,
2013-04-20 14:20:00,83.2,75.3,29.78,NNE,23,1.0,4.0,77,0.00,FEW,,0.00,WeatherDisplay:10.37,2013-04-20 04:20:00,
2013-04-20 14:25:00,83.0,75.4,29.78,NNE,24,1.0,4.0,78,0.00,FEW,,0.00,WeatherDisplay:10.37,2013-04-20 04:25:00,
2013-04-20 14:30:00,82.8,75.2,29.78,NNE,24,0.0,3.0,78,0.00,FEW,,0.00,WeatherDisplay:10.37,2013-04-20 04:30:00,
2013-04-20 14:40:00,83.0,75.0,29.78,NNE,22,1.0,5.0,77,0.00,FEW,,0.00,WeatherDisplay:10.37,2013-04-20 04:40:00,
2013-04-20 14:45:00,82.8,74.8,29.78,NNE,18,0.0,6.0,77,0.00,FEW,,0.00,WeatherDisplay:10.37,2013-04-20 04:45:00,
2013-04-20 14:50:00,82.6,74.6,29.78,NNE,16,1.0,4.0,77,0.00,FEW,,0.00,WeatherDisplay:10.37,2013-04-20 04:50:00,
2013-04-20 14:55:00,82.5,74.6,29.78,NNE,16,1.0,3.0,77,0.00,FEW,,0.00,WeatherDisplay:10.37,2013-04-20 04:55:00,
2013-04-20 15:00:00,82.5,75.0,29.77,NNE,16,0.0,2.0,78,0.00,FEW,,0.00,WeatherDisplay:10.37,2013-04-20 05:00:00,
2013-04-20 15:10:00,82.8,74.8,29.77,NNE,17,0.0,3.0,77,0.00,FEW,,0.00,WeatherDisplay:10.37,2013-04-20 05:10:00,
2013-04-20 15:15:00,82.8,75.2,29.77,NNE,17,0.0,3.0,78,0.00,FEW,,0.00,WeatherDisplay:10.37,2013-04-20 05:15:00,
2013-04-20 15:20:00,82.6,74.6,29.77,NNE,17,0.0,2.0,77,0.00,FEW,,0.00,WeatherDisplay:10.37,2013-04-20 05:20:00,
2013-04-20 15:25:00,82.5,75.3,29.77,NNE,17,1.0,3.0,79,0.00,FEW,,0.00,WeatherDisplay:10.37,2013-04-20 05:25:00,
2013-04-20 15:30:00,82.3,74.4,29.77,NNE,17,0.0,1.0,77,0.00,FEW,,0.00,WeatherDisplay:10.37,2013-04-20 05:30:00,
2013-04-20 15:35:00,82.1,74.6,29.77,NNE,17,0.0,1.0,78,0.00,FEW,,0.00,WeatherDisplay:10.37,2013-04-20 05:35:00,
2013-04-20 15:40:00,82.0,74.5,29.77,NNE,17,0.0,3.0,78,0.00,FEW,,0.00,WeatherDisplay:10.37,2013-04-20 05:40:00,
2013-04-20 15:45:00,82.0,74.9,29.77,NNE,17,0.0,3.0,79,0.00,FEW,,0.00,WeatherDisplay:10.37,2013-04-20 05:45:00,
2013-04-20 15:50:00,82.0,74.4,29.77,NNE,17,0.0,1.0,78,0.00,FEW,,0.00,WeatherDisplay:10.37,2013-04-20 05:50:00,
2013-04-20 15:55:00,81.8,74.7,29.77,NNE,17,0.0,1.0,79,0.00,FEW,,0.00,WeatherDisplay:10.37,2013-04-20 05:55:00,
2013-04-20 16:00:00,81.9,74.3,29.77,NNE,17,0.0,2.0,78,0.00,FEW,,0.00,WeatherDisplay:10.37,2013-04-20 06:00:00,
2013-04-20 16:10:00,81.8,74.3,29.78,NNE,20,0.0,1.0,78,0.00,FEW,,0.00,WeatherDisplay:10.37,2013-04-20 06:10:00,
2013-04-20 16:15:00,81.7,74.2,29.78,NNE,21,0.0,2.0,78,0.00,FEW,,0.00,WeatherDisplay:10.37,2013-04-20 06:15:00,
2013-04-20 16:20:00,81.5,74.0,29.78,NNE,22,0.0,2.0,78,0.00,FEW,,0.00,WeatherDisplay:10.37,2013-04-20 06:20:00,
2013-04-20 16:25:00,81.4,73.8,29.78,NNE,22,0.0,3.0,78,0.00,FEW,,0.00,WeatherDisplay:10.37,2013-04-20 06:25:00,
2013-04-20 16:30:00,81.2,73.7,29.78,NNE,23,1.0,3.0,78,0.00,FEW,,0.00,WeatherDisplay:10.37,2013-04-20 06:30:00,
2013-04-20 16:40:00,81.0,73.9,29.78,NNE,25,0.0,1.0,79,0.00,FEW,,0.00,WeatherDisplay:10.37,2013-04-20 06:40:00,
2013-04-20 16:45:00,81.0,74.2,29.78,NNE,25,0.0,1.0,80,0.00,FEW,,0.00,WeatherDisplay:10.37,2013-04-20 06:45:00,
2013-04-20 16:50:00,80.9,74.2,29.78,NNE,25,0.0,1.0,80,0.00,FEW,,0.00,WeatherDisplay:10.37,2013-04-20 06:50:00,
2013-04-20 16:55:00,80.8,74.0,29.78,NNE,25,0.0,2.0,80,0.00,FEW,,0.00,WeatherDisplay:10.37,2013-04-20 06:55:00,
2013-04-20 17:00:00,80.9,74.5,29.79,NNE,25,0.0,3.0,81,0.00,FEW,,0.00,WeatherDisplay:10.37,2013-04-20 07:00:00,
2013-04-20 17:05:00,80.8,74.1,29.79,NNE,26,0.0,1.0,80,0.00,FEW,,0.00,WeatherDisplay:10.37,2013-04-20 07:05:00,
2013-04-20 17:10:00,80.7,74.0,29.79,NNE,27,0.0,1.0,80,0.00,FEW,,0.00,WeatherDisplay:10.37,2013-04-20 07:10:00,
2013-04-20 17:15:00,80.6,73.9,29.79,NNE,27,0.0,1.0,80,0.00,FEW,,0.00,WeatherDisplay:10.37,2013-04-20 07:15:00,
2013-04-20 17:20:00,80.5,73.8,29.79,NNE,27,0.0,1.0,80,0.00,SCT,,0.00,WeatherDisplay:10.37,2013-04-20 07:20:00,
2013-04-20 17:25:00,80.4,73.7,29.80,NNE,30,0.0,3.0,80,0.00,SCT,,0.00,WeatherDisplay:10.37,2013-04-20 07:25:00,
2013-04-20 17:30:00,80.3,73.9,29.79,NE,34,0.0,2.0,81,0.00,SCT,,0.00,WeatherDisplay:10.37,2013-04-20 07:30:00,
2013-04-20 17:35:00,80.3,73.9,29.80,NE,36,0.0,1.0,81,0.00,SCT,,0.00,WeatherDisplay:10.37,2013-04-20 07:35:00,
2013-04-20 17:40:00,80.1,73.8,29.80,NE,36,0.0,1.0,81,0.00,SCT,,0.00,WeatherDisplay:10.37,2013-04-20 07:40:00,
2013-04-20 17:45:00,80.0,73.7,29.80,NE,39,0.0,2.0,81,0.00,SCT,,0.00,WeatherDisplay:10.37,2013-04-20 07:45:00,
2013-04-20 17:50:00,80.0,73.6,29.80,NE,44,0.0,2.0,81,0.00,SCT,,0.00,WeatherDisplay:10.37,2013-04-20 07:50:00,
2013-04-20 17:55:00,79.9,73.5,29.80,NE,46,0.0,1.0,81,0.00,SCT,,0.00,WeatherDisplay:10.37,2013-04-20 07:55:00,
2013-04-20 18:00:00,79.8,73.5,29.80,NE,46,0.0,1.0,81,0.00,SCT,,0.00,WeatherDisplay:10.37,2013-04-20 08:00:00,
2013-04-20 18:10:00,79.9,73.9,29.80,NE,46,0.0,1.0,82,0.00,SCT,,0.00,WeatherDisplay:10.37,2013-04-20 08:10:00,
2013-04-20 18:15:00,79.8,73.4,29.80,NE,46,0.0,1.0,81,0.00,SCT,,0.00,WeatherDisplay:10.37,2013-04-20 08:15:00,
2013-04-20 18:20:00,79.8,73.4,29.81,NE,46,0.0,2.0,81,0.00,SCT,,0.00,WeatherDisplay:10.37,2013-04-20 08:20:00,
2013-04-20 18:25:00,79.7,73.3,29.81,NE,46,0.0,2.0,81,0.00,SCT,,0.00,WeatherDisplay:10.37,2013-04-20 08:25:00,
2013-04-20 18:30:00,79.6,73.3,29.81,NE,46,0.0,1.0,81,0.00,SCT,,0.00,WeatherDisplay:10.37,2013-04-20 08:30:00,
2013-04-20 18:35:00,79.4,72.7,29.81,NE,46,0.0,1.0,80,0.00,SCT,,0.00,WeatherDisplay:10.37,2013-04-20 08:35:00,
2013-04-20 18:45:00,79.4,73.0,29.81,NE,46,0.0,1.0,81,0.00,SCT,,0.00,WeatherDisplay:10.37,2013-04-20 08:45:00,
2013-04-20 18:50:00,79.2,72.5,29.82,NE,46,0.0,1.0,80,0.00,SCT,,0.00,WeatherDisplay:10.37,2013-04-20 08:50:00,
2013-04-20 18:55:00,79.2,72.8,29.82,NE,46,0.0,0.0,81,0.00,SCT,,0.00,WeatherDisplay:10.37,2013-04-20 08:55:00,
2013-04-20 19:00:00,79.1,72.8,29.82,NE,46,0.0,1.0,81,0.00,SCT,,0.00,WeatherDisplay:10.37,2013-04-20 09:00:00,
2013-04-20 19:05:00,79.0,72.7,29.82,NE,46,0.0,0.0,81,0.00,SCT,,0.00,WeatherDisplay:10.37,2013-04-20 09:05:00,
2013-04-20 19:10:00,78.9,72.6,29.82,NE,46,0.0,0.0,81,0.00,SCT,,0.00,WeatherDisplay:10.37,2013-04-20 09:10:00,
2013-04-20 19:15:00,78.8,72.5,29.82,NE,46,0.0,1.0,81,0.00,SCT,,0.00,WeatherDisplay:10.37,2013-04-20 09:15:00,
2013-04-20 19:20:00,78.7,72.4,29.83,NE,46,0.0,0.0,81,0.00,SCT,,0.00,WeatherDisplay:10.37,2013-04-20 09:20:00,
2013-04-20 19:25:00,78.7,72.7,29.83,NE,46,0.0,1.0,82,0.00,SCT,,0.00,WeatherDisplay:10.37,2013-04-20 09:25:00,
2013-04-20 19:30:00,78.6,72.7,29.83,NE,46,0.0,0.0,82,0.00,SCT,,0.00,WeatherDisplay:10.37,2013-04-20 09:30:00,
2013-04-20 19:35:00,78.6,72.3,29.83,NE,46,0.0,3.0,81,0.00,SCT,,0.00,WeatherDisplay:10.37,2013-04-20 09:35:00,
2013-04-20 19:40:00,78.7,72.7,29.83,NE,45,0.0,1.0,82,0.00,SCT,,0.00,WeatherDisplay:10.37,2013-04-20 09:40:00,
2013-04-20 19:45:00,78.6,72.6,29.83,NE,45,1.0,2.0,82,0.00,SCT,,0.00,WeatherDisplay:10.37,2013-04-20 09:45:00,
2013-04-20 19:50:00,78.5,72.5,29.84,NE,45,1.0,2.0,82,0.00,SCT,,0.00,WeatherDisplay:10.37,2013-04-20 09:50:00,
2013-04-20 19:55:00,78.3,72.4,29.84,NE,45,0.0,1.0,82,0.00,SCT,,0.00,WeatherDisplay:10.37,2013-04-20 09:55:00,
2013-04-20 20:00:00,78.0,72.1,29.84,NE,45,0.0,0.0,82,0.00,SCT,,0.00,WeatherDisplay:10.37,2013-04-20 10:00:00,
2013-04-20 20:10:00,77.2,71.6,29.85,NE,45,0.0,0.0,83,0.00,FEW,,0.00,WeatherDisplay:10.37,2013-04-20 10:10:00,
2013-04-20 20:15:00,76.9,71.7,29.85,NE,45,0.0,0.0,84,0.00,FEW,,0.00,WeatherDisplay:10.37,2013-04-20 10:15:00,
2013-04-20 20:20:00,76.5,71.7,29.86,NE,45,0.0,0.0,85,0.00,FEW,,0.00,WeatherDisplay:10.37,2013-04-20 10:20:00,
2013-04-20 20:25:00,76.2,71.4,29.86,NE,45,0.0,0.0,85,0.00,FEW,,0.00,WeatherDisplay:10.37,2013-04-20 10:25:00,
2013-04-20 20:30:00,76.0,71.2,29.86,NE,45,0.0,0.0,85,0.00,FEW,,0.00,WeatherDisplay:10.37,2013-04-20 10:30:00,
2013-04-20 20:40:00,75.7,71.2,29.86,NE,45,0.0,0.0,86,0.00,FEW,,0.00,WeatherDisplay:10.37,2013-04-20 10:40:00,
2013-04-20 20:45:00,75.5,71.0,29.87,NE,45,0.0,0.0,86,0.00,FEW,,0.00,WeatherDisplay:10.37,2013-04-20 10:45:00,
2013-04-20 20:50:00,75.4,70.9,29.87,NE,45,0.0,1.0,86,0.00,FEW,,0.00,WeatherDisplay:10.37,2013-04-20 10:50:00,
2013-04-20 20:55:00,75.6,71.5,29.87,NE,45,0.0,1.0,87,0.00,FEW,,0.00,WeatherDisplay:10.37,2013-04-20 10:55:00,
2013-04-20 21:00:00,75.7,71.2,29.87,NE,45,0.0,0.0,86,0.00,FEW,,0.00,WeatherDisplay:10.37,2013-04-20 11:00:00,
2013-04-20 21:10:00,76.0,71.8,29.88,NE,46,0.0,2.0,87,0.00,FEW,,0.00,WeatherDisplay:10.37,2013-04-20 11:10:00,
2013-04-20 21:15:00,76.1,71.6,29.88,NE,46,0.0,3.0,86,0.00,FEW,,0.00,WeatherDisplay:10.37,2013-04-20 11:15:00,
2013-04-20 21:20:00,76.5,72.0,29.88,NE,45,0.0,2.0,86,0.00,FEW,,0.00,WeatherDisplay:10.37,2013-04-20 11:20:00,
2013-04-20 21:25:00,76.2,71.4,29.88,NE,45,0.0,0.0,85,0.00,FEW,,0.00,WeatherDisplay:10.37,2013-04-20 11:25:00,
2013-04-20 21:30:00,76.0,71.5,29.88,NE,45,0.0,0.0,86,0.00,FEW,,0.00,WeatherDisplay:10.37,2013-04-20 11:30:00,
2013-04-20 21:35:00,75.8,71.3,29.88,NE,45,0.0,1.0,86,0.00,FEW,,0.00,WeatherDisplay:10.37,2013-04-20 11:35:00,
2013-04-20 21:40:00,75.5,71.0,29.88,NE,45,0.0,0.0,86,0.00,FEW,,0.00,WeatherDisplay:10.37,2013-04-20 11:40:00,
2013-04-20 21:45:00,75.2,70.7,29.88,NE,45,0.0,2.0,86,0.00,FEW,,0.00,WeatherDisplay:10.37,2013-04-20 11:45:00,
2013-04-20 21:50:00,75.0,70.9,29.88,NE,45,0.0,3.0,87,0.00,BKN,,0.00,WeatherDisplay:10.37,2013-04-20 11:50:00,
2013-04-20 21:55:00,74.9,70.8,29.88,NE,45,0.0,1.0,87,0.00,BKN,,0.00,WeatherDisplay:10.37,2013-04-20 11:55:00,
2013-04-20 22:00:00,74.8,70.7,29.88,NE,45,0.0,1.0,87,0.00,BKN,,0.00,WeatherDisplay:10.37,2013-04-20 12:00:00,
2013-04-20 22:10:00,74.6,70.5,29.88,NE,45,0.0,1.0,87,0.00,FEW,,0.00,WeatherDisplay:10.37,2013-04-20 12:10:00,
2013-04-20 22:15:00,74.6,70.8,29.88,NE,45,0.0,3.0,88,0.00,FEW,,0.00,WeatherDisplay:10.37,2013-04-20 12:15:00,
2013-04-20 22:20:00,74.6,70.8,29.88,NE,45,0.0,1.0,88,0.00,FEW,,0.00,WeatherDisplay:10.37,2013-04-20 12:20:00,
2013-04-20 22:25:00,74.6,70.8,29.88,NE,45,0.0,1.0,88,0.00,FEW,,0.00,WeatherDisplay:10.37,2013-04-20 12:25:00,
2013-04-20 22:30:00,74.5,70.7,29.87,NE,45,0.0,3.0,88,0.00,FEW,,0.00,WeatherDisplay:10.37,2013-04-20 12:30:00,
2013-04-20 22:35:00,74.4,70.6,29.88,NE,45,0.0,1.0,88,0.00,FEW,,0.00,WeatherDisplay:10.37,2013-04-20 12:35:00,
2013-04-20 22:40:00,74.3,70.5,29.88,NE,45,0.0,0.0,88,0.00,FEW,,0.00,WeatherDisplay:10.37,2013-04-20 12:40:00,
2013-04-20 22:45:00,74.2,70.4,29.87,NE,45,0.0,2.0,88,0.00,FEW,,0.00,WeatherDisplay:10.37,2013-04-20 12:45:00,
2013-04-20 22:50:00,74.1,70.6,29.87,NE,45,0.0,2.0,89,0.00,FEW,,0.00,WeatherDisplay:10.37,2013-04-20 12:50:00,
2013-04-20 22:55:00,74.1,70.6,29.87,NE,45,0.0,2.0,89,0.00,FEW,,0.00,WeatherDisplay:10.37,2013-04-20 12:55:00,
2013-04-20 23:00:00,74.1,70.6,29.87,NE,45,0.0,1.0,89,0.00,FEW,,0.00,WeatherDisplay:10.37,2013-04-20 13:00:00,
2013-04-20 23:10:00,74.0,70.6,29.87,NE,44,0.0,1.0,89,0.00,FEW,,0.00,WeatherDisplay:10.37,2013-04-20 13:10:00,
2013-04-20 23:15:00,74.0,70.5,29.87,NE,44,0.0,2.0,89,0.00,FEW,,0.00,WeatherDisplay:10.37,2013-04-20 13:15:00,
2013-04-20 23:25:00,73.9,70.5,29.87,North,360,1.0,3.0,89,0.00,FEW,,0.00,WeatherDisplay:10.37,2013-04-20 13:25:00,
2013-04-20 23:30:00,73.9,70.5,29.87,North,355,0.0,1.0,89,0.00,FEW,,0.00,WeatherDisplay:10.37,2013-04-20 13:30:00,
2013-04-20 23:35:00,73.8,70.4,29.87,NNW,347,0.0,2.0,89,0.00,FEW,,0.00,WeatherDisplay:10.37,2013-04-20 13:35:00,
2013-04-20 23:40:00,73.7,70.3,29.87,NNW,333,1.0,4.0,89,0.00,FEW,,0.00,WeatherDisplay:10.37,2013-04-20 13:40:00,
2013-04-20 23:45:00,73.6,70.2,29.87,NW,323,1.0,3.0,89,0.00,FEW,,0.00,WeatherDisplay:10.37,2013-04-20 13:45:00,
2013-04-20 23:50:00,73.5,70.1,29.86,NW,315,1.0,3.0,89,0.00,FEW,,0.00,WeatherDisplay:10.37,2013-04-20 13:50:00,
2013-04-20 23:55:00,73.4,70.0,29.86,NW,307,1.0,4.0,89,0.00,FEW,,0.00,WeatherDisplay:10.37,2013-04-20 13:55:00,